DIPSW EDAZ-EKRN

Flight info

Callsign DIPSW
Flight time N/A
Altitude 6000
Route LWB DCT FLD
Aircraft DA62/L-SDFGRY/C

Departure

Time 2026-04-30 14:21
Airport Schönhagen Airfield (EDAZ)

Arrival

Time N/A
Airport Bornholm Airport (EKRN)
Time Latitude Longitude Altitude Speed Heading
2026-04-30 14:16 52.20349 13.15200 136 ft 9 kts 250°
2026-04-30 14:17 52.20331 13.15080 135 ft 20 kts 266°
2026-04-30 14:17 52.20281 13.14964 133 ft 11 kts 166°
2026-04-30 14:17 52.20236 13.15016 133 ft 3 kts 73°
2026-04-30 14:17 52.20238 13.15031 133 ft 0 kts 78°
2026-04-30 14:19 52.20244 13.15067 133 ft 18 kts 72°
2026-04-30 14:19 52.20325 13.15535 139 ft 66 kts 72°
2026-04-30 14:19 52.20477 13.16413 167 ft 94 kts 72°
2026-04-30 14:20 52.20633 13.17540 252 ft 107 kts 85°
2026-04-30 14:20 52.20582 13.18727 560 ft 102 kts 94°
2026-04-30 14:20 52.20372 13.21654 361 ft 160 kts 91°
2026-04-30 14:21 52.20145 13.23409 636 ft 147 kts 116°
2026-04-30 14:21 52.19423 13.24335 774 ft 144 kts 202°
2026-04-30 14:21 52.17648 13.22513 1391 ft 126 kts 246°
2026-04-30 14:22 52.18017 13.21482 1779 ft 116 kts 341°
2026-04-30 14:22 52.19832 13.20563 1833 ft 158 kts 340°
2026-04-30 14:22 52.20915 13.20028 1841 ft 167 kts 359°
2026-04-30 14:23 52.23308 13.19920 1851 ft 179 kts 355°
2026-04-30 14:23 52.25757 13.19552 1859 ft 177 kts 355°
2026-04-30 14:24 52.28185 13.19179 2150 ft 170 kts 354°
2026-04-30 14:24 52.29287 13.19017 2387 ft 151 kts 355°
2026-04-30 14:25 52.31153 13.18721 2824 ft 118 kts 355°
2026-04-30 14:25 52.32640 13.18506 3278 ft 101 kts 354°
2026-04-30 14:26 52.33945 13.18317 3756 ft 88 kts 355°
2026-04-30 14:26 52.34533 13.18210 3987 ft 83 kts 355°
2026-04-30 14:26 52.35672 13.17988 4318 ft 93 kts 355°
2026-04-30 14:27 52.36393 13.17845 4441 ft 114 kts 354°
2026-04-30 14:27 52.37235 13.17677 4608 ft 131 kts 355°
2026-04-30 14:27 52.38181 13.17494 4747 ft 142 kts 354°
2026-04-30 14:28 52.40236 13.17102 4982 ft 156 kts 355°
2026-04-30 14:28 52.41355 13.16885 4993 ft 167 kts 355°
2026-04-30 14:28 52.42534 13.16661 4987 ft 175 kts 355°
2026-04-30 14:28 52.43742 13.16438 4988 ft 179 kts 355°
2026-04-30 14:29 52.46083 13.15995 4981 ft 158 kts 355°
2026-04-30 14:29 52.47760 13.15664 4977 ft 133 kts 355°
2026-04-30 14:30 52.50527 13.15106 4980 ft 110 kts 355°
2026-04-30 14:31 52.52009 13.14797 4983 ft 104 kts 355°
2026-04-30 14:31 52.53464 13.14500 4974 ft 107 kts 355°
2026-04-30 14:31 52.54198 13.14348 4987 ft 106 kts 355°
2026-04-30 14:32 52.55633 13.14059 4996 ft 99 kts 355°
2026-04-30 14:32 52.56328 13.13909 4986 ft 100 kts 354°
2026-04-30 14:32 52.56989 13.13764 4999 ft 94 kts 354°
2026-04-30 14:33 52.57627 13.13629 4993 ft 90 kts 355°
2026-04-30 14:33 52.58926 13.13326 5060 ft 112 kts 355°
2026-04-30 14:33 52.59782 13.13154 5022 ft 131 kts 355°
2026-04-30 14:34 52.60723 13.12974 5016 ft 140 kts 354°
2026-04-30 14:34 52.61726 13.12780 5014 ft 150 kts 355°
2026-04-30 14:34 52.62776 13.12577 5018 ft 156 kts 355°
2026-04-30 14:34 52.63867 13.12370 5012 ft 159 kts 355°
2026-04-30 14:35 52.65691 13.12006 5014 ft 158 kts 354°
2026-04-30 14:35 52.67153 13.11736 5009 ft 159 kts 355°
2026-04-30 14:35 52.68235 13.11531 5008 ft 159 kts 355°
2026-04-30 14:36 52.69334 13.11316 5009 ft 159 kts 354°
2026-04-30 14:36 52.70425 13.11108 5004 ft 157 kts 355°
2026-04-30 14:36 52.71502 13.10900 4998 ft 155 kts 354°
2026-04-30 14:36 52.72574 13.10695 5000 ft 155 kts 355°
2026-04-30 14:37 52.73651 13.10493 5008 ft 157 kts 355°
2026-04-30 14:37 52.74742 13.10289 5005 ft 159 kts 355°
2026-04-30 14:37 52.75833 13.10081 5002 ft 157 kts 355°
2026-04-30 14:37 52.76901 13.10170 5002 ft 154 kts 17°
2026-04-30 14:38 52.77946 13.10516 5007 ft 153 kts
2026-04-30 14:38 52.79000 13.10778 5006 ft 153 kts
2026-04-30 14:38 52.80048 13.11065 5004 ft 153 kts 10°
2026-04-30 14:38 52.81114 13.11362 5016 ft 158 kts 10°
2026-04-30 14:39 52.82199 13.11667 5009 ft 157 kts 10°
2026-04-30 14:39 52.83274 13.11959 5009 ft 156 kts
2026-04-30 14:39 52.84327 13.12223 5004 ft 148 kts
2026-04-30 14:40 52.86413 13.12745 5000 ft 154 kts
2026-04-30 14:40 52.87478 13.13013 5001 ft 157 kts
2026-04-30 14:40 52.88551 13.13276 5001 ft 155 kts
2026-04-30 14:40 52.89631 13.13544 5006 ft 158 kts
2026-04-30 14:41 52.90722 13.13815 5009 ft 159 kts
2026-04-30 14:41 52.91813 13.14102 5005 ft 159 kts 12°
2026-04-30 14:41 52.92873 13.14604 5003 ft 157 kts 17°
2026-04-30 14:41 52.93899 13.15127 5002 ft 152 kts 17°
2026-04-30 14:42 52.94887 13.15651 5003 ft 148 kts 20°
2026-04-30 14:42 52.95833 13.16309 4993 ft 146 kts 19°
2026-04-30 14:42 52.96787 13.16817 4990 ft 143 kts 17°
2026-04-30 14:42 52.97740 13.17314 4999 ft 145 kts 17°
2026-04-30 14:43 52.98707 13.17815 4990 ft 146 kts 17°
2026-04-30 14:43 52.99657 13.18319 4996 ft 142 kts 17°
2026-04-30 14:43 53.00592 13.18816 4996 ft 141 kts 17°
2026-04-30 14:43 53.01528 13.19308 4998 ft 142 kts 17°
2026-04-30 14:44 53.02465 13.19796 4998 ft 140 kts 17°
2026-04-30 14:44 53.03387 13.20281 4997 ft 138 kts 17°
2026-04-30 14:44 53.04294 13.20755 4996 ft 139 kts 17°
2026-04-30 14:44 53.05224 13.21240 4994 ft 140 kts 17°
2026-04-30 14:45 53.06157 13.21732 4991 ft 141 kts 17°
2026-04-30 14:45 53.07086 13.22226 4992 ft 139 kts 17°
2026-04-30 14:45 53.08000 13.22717 4992 ft 137 kts 18°
2026-04-30 14:45 53.08876 13.23330 4993 ft 136 kts 23°
2026-04-30 14:46 53.09800 13.24022 5014 ft 157 kts 24°
2026-04-30 14:46 53.10846 13.24780 5006 ft 168 kts 22°
2026-04-30 14:46 53.11940 13.25582 5019 ft 175 kts 22°
2026-04-30 14:46 53.12701 13.26153 5002 ft 179 kts 23°
2026-04-30 14:47 53.14117 13.27207 4994 ft 158 kts 23°
2026-04-30 14:47 53.15085 13.27936 4986 ft 148 kts 23°
2026-04-30 14:47 53.15997 13.28621 4988 ft 141 kts 23°
2026-04-30 14:47 53.16883 13.29288 4917 ft 141 kts 23°
2026-04-30 14:48 53.17786 13.29963 4784 ft 143 kts 23°
2026-04-30 14:48 53.18395 13.30419 4681 ft 147 kts 24°
2026-04-30 14:48 53.19334 13.31126 4514 ft 150 kts 23°
2026-04-30 14:48 53.20298 13.31845 4341 ft 158 kts 22°
2026-04-30 14:49 53.21339 13.32641 3893 ft 171 kts 23°
2026-04-30 14:49 53.22407 13.33455 3752 ft 161 kts 22°
2026-04-30 14:49 53.23394 13.34206 3744 ft 154 kts 22°
2026-04-30 14:49 53.24359 13.34947 3744 ft 151 kts 23°
2026-04-30 14:50 53.26158 13.36352 3732 ft 135 kts 23°
2026-04-30 14:50 53.26995 13.37011 3728 ft 131 kts 23°
2026-04-30 14:51 53.28661 13.38326 3733 ft 132 kts 23°
2026-04-30 14:51 53.29458 13.38961 3824 ft 121 kts 23°
2026-04-30 14:51 53.30913 13.40112 4193 ft 120 kts 23°
2026-04-30 14:52 53.31692 13.40720 4465 ft 127 kts 23°
2026-04-30 14:52 53.33354 13.42012 5007 ft 139 kts 23°
2026-04-30 14:52 53.34247 13.42698 5266 ft 142 kts 23°
2026-04-30 14:53 53.36041 13.44028 5785 ft 142 kts 23°
2026-04-30 14:53 53.36952 13.44688 6046 ft 144 kts 22°
2026-04-30 14:54 53.38822 13.46038 6440 ft 152 kts 24°
2026-04-30 14:54 53.40918 13.47512 6444 ft 171 kts 23°
2026-04-30 14:55 53.43141 13.49087 6451 ft 176 kts 23°
2026-04-30 14:55 53.44271 13.49891 6446 ft 178 kts 23°
2026-04-30 14:55 53.46553 13.51498 6448 ft 177 kts 23°
2026-04-30 14:56 53.48833 13.53116 6449 ft 178 kts 23°
2026-04-30 14:56 53.51121 13.54738 6441 ft 179 kts 23°
2026-04-30 14:57 53.52266 13.55550 6442 ft 179 kts 23°
2026-04-30 14:57 53.54587 13.56971 5836 ft 176 kts
2026-04-30 14:58 53.56840 13.54883 3158 ft 189 kts 321°
2026-04-30 14:58 53.57711 13.53546 2570 ft 158 kts 316°